User: anonymous
Location: Caltech
(34.1382°N, 118.1253°W)
Time: 17:07:55
(UTC-07:00)
Language:

Cosmos 1758 Rocket - Orbit

View from above orbital plane
View from above orbital plane
View from above satellite
View from above satellite

Ground track
Ground track

The orbit data is extracted from the following two-line orbital elements,

1 16792U 86046B   14263.98103542  .00000390  00000-0  45288-4 0  5794
2 16792 082.4822 063.3006 0023734 348.8336 160.5391 14.82621737526644
Epoch (UTC): 20 September 2014 23:32:41
Eccentricity: 0.0023734
inclination: 82.4822°
perigee height: 604 km
apogee height: 637 km
right ascension of ascending node: 63.3006°
argument of perigee: 348.8336°
revolutions per day: 14.82621737
mean anomaly at epoch: 160.5391°
orbit number at epoch: 52664

The dashed part of the orbit path shows where the satellite is in the earth's shadow,  

DLR